Location: Unspecified
(0.0000°N, 0.0000°E)
Time: 14:52:54
(UTC+00:00)

Hubble Space Telescope - Pass Details

Date: 12 January 2018
Orbit: 537 x 541 km, 28.5° (Epoch: 21 July)

Event Time Altitude Azimuth Distance (km) Brightness Sun altitude
Rises 19:18:03 0° 220° (SW) 2,675 5.5 -16.1°
Reaches altitude 10° 19:20:39 10° 205° (SSW) 1,784 4.1 -16.7°
Maximum altitude 19:23:59 24° 151° (SSE) 1,147 2.4 -17.5°
Enters shadow 19:25:10 21° 125° (SE) 1,245 2.3 -17.8°
